9M2SES-13 Weather Reports


Display with metric or nautical units.
time (UTC)temp
F
wind
direction
speed
MPH
gust
MPH
rain 1hr
in
rain 24hr
in
rain mn
in
humidity
%
barometer
mb
20260504205326 78 315 0.0 15.0 0.00 0.00 0.02 95
20260504203325 80 315 0.0 15.0 0.00 0.00 0.02 95
20260504201326 80 0 0.0 15.0 0.00 0.00 0.02 95
20260504192319 80 270 0.0 0.0 0.00 0.00 0.02 95
20260504184316 78 270 0.0 15.0 0.00 0.00 0.02 95
20260504183316 80 270 0.0 47.0 0.00 0.00 0.02 95
20260504182315 78 180 0.0 31.0 0.00 0.00 0.02 95
20260504160304 82 315 0.0 15.0 0.00 0.02 0.02 95
20260504140255 82 315 7.0 7.0 0.00 0.02 0.02 95
20260504130250 82 270 0.0 15.0 0.00 0.02 0.02 95
20260504120247 82 90 0.0 15.0 0.00 0.02 0.02 95
20260504081229 87 180 7.0 55.0 0.00 0.02 0.02 95
20260504080229 86 270 31.0 39.0 0.00 0.02 0.02 95
20260504070223 84 180 0.0 39.0 0.01 0.02 0.02 95
20260504060218 78 225 15.0 87.0 0.00 0.01 0.02 95
20260504045213 80 270 15.0 126.0 0.00 0.00 0.02 95
20260504043211 84 180 31.0 39.0 0.00 0.00 0.02 95
20260504042210 84 180 0.0 39.0 0.00 0.00 0.02 95
20260504034208 84 270 15.0 47.0 0.00 0.00 0.02 91
20260504033206 84 270 31.0 87.0 0.00 0.00 0.02 95
20260504031204 87 270 15.0 55.0 0.00 0.00 0.02 95
20260504030203 89 270 15.0 63.0 0.00 0.00 0.02 95
20260504024202 87 270 7.0 31.0 0.00 0.00 0.02 95
20260504023201 87 270 0.0 31.0 0.00 0.00 0.02 95
20260504021159 87 270 7.0 31.0 0.00 0.00 0.02 95
20260504020158 89 315 0.0 39.0 0.00 0.00 0.02 95
20260504015158 89 315 7.0 39.0 0.00 0.00 0.02 95
20260504014157 86 0 7.0 39.0 0.00 0.00 0.02 95
20260504013156 86 270 31.0 55.0 0.00 0.00 0.02 95
20260504012155 86 270 23.0 39.0 0.00 0.00 0.02 95
20260504010154 86 270 7.0 39.0 0.00 0.00 0.02 95
20260504005152 84 270 15.0 23.0 0.00 0.00 0.02 95
20260504004151 82 270 0.0 15.0 0.00 0.00 0.02 95
20260504001149 82 315 0.0 15.0 0.00 0.00 0.02 95
20260503234147 80 0 7.0 15.0 0.00 0.00 0.02 95
20260503233146 80 315 0.0 7.0 0.00 0.00 0.02 95
20260503231145 80 315 0.0 15.0 0.00 0.00 0.02 95
20260503230145 80 180 0.0 15.0 0.00 0.00 0.02 95
20260503225144 80 180 0.0 0.0 0.00 0.00 0.02 95
20260503224144 80 180 0.0 0.0 0.00 0.00 0.02 95
20260503223143 80 180 0.0 15.0 0.00 0.00 0.02 95
20260503222142 78 180 0.0 7.0 0.00 0.00 0.02 95
20260503221142 80 180 0.0 15.0 0.00 0.00 0.02 95
20260503214139 80 180 0.0 0.0 0.00 0.00 0.02 95